STARLINK-1287

decayed
NORAD ID: 45371 Int'l Des: 2020-019 Owner: SPXS Country: US Constellation: starlink
LEOCIRCULAR
Gruppe

Über STARLINK-1287

Beschreibung wird geladen...

Höhenverlauf

Altitude vs Time

uPlot chart will show altitude changes over time

Zweizeiliger Elementsatz

1 45371U 20019M 24230.01005044 .20361866 12051-4 45053-2 0 9991
2 45371 53.0348 132.4947 0007924 259.7910 201.8269 16.29533865244859
Epoch: 17. Aug. 2024 • Age: 9472 hours

Aktueller Status

Position data unavailable
Startdatum 18. März 2020
Alter 5.4 years
Verglühungsdatum 17. Aug. 2024
Typ internet

Technische Details

Klassifizierung Payload
Masse 260.00 kg
Trockenmasse 248.00 kg
Gesamtmasse 260.00 kg
Länge 0.20 m
Durchmesser 2.80 m
Spannweite 9.00 m
Form Box + pan
Hersteller SPXS
Bus-Typ Starlink
Phasenstatus Reentered
Besitzer/Staat SPXS/US

Große Konstellationen

Loading constellations...